Location: Observatory
(49.4490°N, 2.6360°W)
Time: 01:39:57
(UTC+00:00)

Envisat - Visible Passes

Search period start: 05 March 2024 00:00
Search period end: 15 March 2024 00:00
Orbit: 762 x 764 km, 98.3° (Epoch: 04 March)

Date Brightness Start Highest point End Pass type
(mag) Time Alt. Az. Time Alt. Az. Time Alt. Az.
05 Mar 4.7 02:52:41 10° NNE 02:56:13 28° ENE 02:56:13 28° ENE visible
05 Mar 3.3 04:31:28 10° N 04:36:15 43° WNW 04:36:24 43° WNW visible
06 Mar 5.6 02:16:35 10° NE 02:18:38 14° ENE 02:18:38 14° ENE visible
06 Mar 2.9 03:53:58 10° NNE 03:58:48 80° NNW 03:58:48 80° NNW visible
06 Mar 4.6 05:34:24 10° NNW 05:37:18 16° NW 05:38:59 13° WNW visible
07 Mar 3.9 03:16:46 10° NNE 03:21:13 46° E 03:21:13 46° E visible
07 Mar 3.9 04:56:10 10° N 05:00:27 28° WNW 05:01:23 26° W visible
08 Mar 5.0 02:40:02 10° NE 02:43:37 23° E 02:43:37 23° E visible
08 Mar 3.1 04:18:27 10° N 04:23:24 54° WNW 04:23:47 52° W visible
08 Mar 5.0 06:00:40 10° NW 06:01:18 10° NW 06:01:55 10° WNW visible
09 Mar 5.8 02:04:42 10° ENE 02:06:02 11° E 02:06:02 11° E visible
09 Mar 3.0 03:41:03 10° NNE 03:46:10 77° ESE 03:46:12 77° ESE visible
09 Mar 4.5 05:21:05 10° NNW 05:24:35 19° WNW 05:26:22 16° W visible
10 Mar 4.2 03:03:59 10° NNE 03:08:36 37° E 03:08:36 37° E visible
10 Mar 3.7 04:43:04 10° N 04:47:39 35° WNW 04:48:46 31° W visible
11 Mar 5.2 02:27:30 10° NE 02:31:00 19° E 02:31:00 19° E visible
11 Mar 2.9 04:05:28 10° N 04:10:32 68° WNW 04:11:11 61° WSW visible
11 Mar 4.9 05:46:26 10° NNW 05:48:36 13° NW 05:50:45 10° WNW visible
12 Mar 3.3 03:28:10 10° NNE 03:33:13 60° E 03:33:35 58° ESE visible
12 Mar 4.2 05:07:52 10° N 05:11:48 23° WNW 05:13:45 19° W visible
13 Mar 4.5 02:51:15 10° NNE 02:55:41 29° E 02:55:59 29° E visible
13 Mar 3.4 04:30:01 10° N 04:34:49 43° WNW 04:36:09 35° WSW visible
14 Mar 5.4 02:15:10 10° NE 02:17:57 15° E 02:18:23 14° E visible
14 Mar 2.9 03:52:31 10° NNE 03:57:38 86° WNW 03:58:34 60° SSW visible
14 Mar 4.7 05:32:55 10° NNW 05:35:52 16° NW 05:38:44 10° W visible
